Date String (YYYY-MM-DD hh:mm:ss) UTC,Instrument flags,Ambient pressure (hPa),Sample flow (lpm),Bypass flow (lpm),Sample temperature (°C),Ambient temperature (°C),ASC tube jacket temperature (°C),LED temperature (°C),Box temperature (°C),Sample RH (%),Span deviation,Mass concentration (μg/m³),Mass concentration (μg/m³),Mass concentration (μg/m³)
DateTimeUTC,F1_M11,P_M11,Q1_M11,Q2_M11,T1_M11,T2_M11,T3_M11,T4_M11,T5_M11,U1_M11,ZSPAN_M11,X0_M11,X2_M11,X1_M11
2022-11-25 11:00:00,,0834.9,5.01,0.00,22.3,21.6,00.0,31.1,24.2,09.4,0000.0,0001.06,0000.58,0000.44
2022-11-25 11:01:00,,0834.9,5.00,0.00,22.2,21.4,00.0,31.1,24.1,09.4,0000.0,0001.06,0000.58,0000.44
2022-11-25 11:02:00,,0834.8,5.00,0.00,22.2,21.2,00.0,31.1,24.1,09.4,0000.0,0001.09,0000.60,0000.43
2022-11-25 11:03:00,,0834.9,5.00,0.00,22.2,21.1,00.0,31.1,24.1,09.4,0000.0,0001.10,0000.61,0000.43
2022-11-25 11:04:00,,0834.8,5.00,0.00,22.2,21.0,00.0,31.1,24.1,09.5,0000.0,0001.14,0000.62,0000.43
2022-11-25 11:05:00,,0834.8,4.99,0.00,22.2,20.9,00.0,31.1,24.0,09.5,0000.0,0001.08,0000.60,0000.43
2022-11-25 11:06:00,,0834.8,5.00,0.00,22.2,20.8,00.0,31.1,24.0,09.5,0000.0,0000.99,0000.59,0000.43
2022-11-25 11:07:00,,0834.8,5.00,0.00,22.2,20.8,00.0,31.1,24.0,09.5,0000.0,0000.90,0000.56,0000.43
2022-11-25 11:08:00,,0834.8,5.00,0.00,22.2,20.7,00.0,31.1,24.0,09.6,0000.0,0000.81,0000.54,0000.43
2022-11-25 11:09:00,,0834.8,5.00,0.00,22.1,20.7,00.0,31.1,24.0,09.6,0000.0,0000.78,0000.54,0000.44
2022-11-25 11:10:00,,0834.8,5.00,0.00,22.1,20.7,00.0,31.1,23.9,09.5,0000.0,0000.79,0000.54,0000.44
2022-11-25 11:11:00,,0834.8,5.00,0.00,22.1,20.7,00.0,31.1,23.9,09.5,0000.0,0000.75,0000.53,0000.44
2022-11-25 11:12:00,,0834.8,5.00,0.00,22.1,20.7,00.0,31.1,23.9,09.4,0000.0,0000.73,0000.52,0000.44
2022-11-25 11:13:00,,0834.7,5.00,0.00,22.1,20.6,00.0,31.1,23.9,09.4,0000.0,0000.72,0000.51,0000.44
2022-11-25 11:14:00,,0834.8,5.00,0.00,22.1,20.6,00.0,31.0,23.9,09.4,0000.0,0000.71,0000.50,0000.45
2022-11-25 11:15:00,,0834.7,5.00,0.00,22.0,20.6,00.0,31.0,23.8,09.4,0000.0,0000.66,0000.49,0000.45
2022-11-25 11:16:00,,0834.7,5.00,0.00,22.0,20.5,00.0,31.0,23.8,09.5,0000.0,0000.65,0000.48,0000.44
2022-11-25 11:17:00,,0834.7,5.00,0.00,22.0,20.7,00.0,31.0,23.8,09.4,0000.0,0000.63,0000.47,0000.44
2022-11-25 11:18:00,,0834.7,5.01,0.00,22.1,21.4,00.0,30.9,24.0,09.4,0000.0,0000.63,0000.47,0000.43
2022-11-25 11:19:00,,0834.7,4.98,0.00,22.2,22.1,00.0,30.9,24.2,09.5,0000.0,0000.65,0000.48,0000.44
2022-11-25 11:20:00,,0834.7,5.01,0.00,22.2,22.0,00.0,31.0,24.2,09.5,0000.0,0000.65,0000.47,0000.43
2022-11-25 11:21:00,,0834.7,5.01,0.00,22.2,21.7,00.0,31.0,24.2,09.5,0000.0,0000.67,0000.48,0000.43
2022-11-25 11:22:00,,0834.7,5.00,0.00,22.2,21.5,00.0,31.1,24.1,09.4,0000.0,0000.72,0000.50,0000.43
2022-11-25 11:23:00,,0834.7,4.99,0.00,22.2,21.3,00.0,31.1,24.1,09.4,0000.0,0000.76,0000.51,0000.43
2022-11-25 11:24:00,,0834.7,4.99,0.00,22.2,21.1,00.0,31.1,24.1,09.5,0000.0,0000.78,0000.53,0000.43
2022-11-25 11:25:00,,0834.7,5.00,0.00,22.2,21.0,00.0,31.1,24.0,09.5,0000.0,0000.78,0000.52,0000.42
2022-11-25 11:26:00,,0834.7,5.00,0.00,22.2,20.9,00.0,31.1,24.0,09.5,0000.0,0001.34,0000.53,0000.42
2022-11-25 11:27:00,,0834.7,5.00,0.00,22.1,20.8,00.0,31.1,24.0,09.5,0000.0,0002.23,0000.53,0000.42
2022-11-25 11:28:00,,0834.7,5.00,0.00,22.1,20.7,00.0,31.1,24.0,09.5,0000.0,0002.23,0000.53,0000.42
2022-11-25 11:29:00,,0834.7,5.02,0.00,22.1,20.7,00.0,31.1,23.9,09.4,0000.0,0002.22,0000.52,0000.42
2022-11-25 11:30:00,,0834.7,5.00,0.00,22.1,20.6,00.0,31.1,23.9,09.5,0000.0,0002.22,0000.52,0000.41
2022-11-25 11:31:00,,0834.7,4.99,0.00,22.1,20.6,00.0,31.1,23.9,09.6,0000.0,0002.27,0000.54,0000.42
2022-11-25 11:32:00,,0834.6,5.00,0.00,22.0,20.6,00.0,31.0,23.9,09.8,0000.0,0002.28,0000.55,0000.42
2022-11-25 11:33:00,,0834.6,5.00,0.00,22.0,20.5,00.0,31.0,23.9,09.9,0000.0,0002.23,0000.53,0000.42
2022-11-25 11:34:00,,0834.6,5.00,0.00,22.0,20.5,00.0,31.0,23.8,09.9,0000.0,0002.19,0000.51,0000.42
2022-11-25 11:35:00,,0834.6,5.01,0.00,22.0,20.5,00.0,31.0,23.8,09.6,0000.0,0002.14,0000.49,0000.41
2022-11-25 11:36:00,,0834.5,5.01,0.00,22.0,20.5,00.0,31.0,23.8,09.2,0000.0,0002.12,0000.48,0000.41
2022-11-25 11:37:00,,0834.6,5.01,0.00,22.0,20.7,00.0,31.0,23.8,08.5,0000.0,0001.66,0000.46,0000.40
2022-11-25 11:38:00,,0834.5,5.00,0.00,22.1,21.7,00.0,30.9,24.0,08.9,0000.0,0000.64,0000.46,0000.39
2022-11-25 11:39:00,,0834.6,4.99,0.00,22.2,22.2,00.0,30.9,24.2,08.9,0000.0,0000.71,0000.47,0000.40
2022-11-25 11:40:00,,0834.5,4.99,0.00,22.2,21.9,00.0,31.0,24.2,08.9,0000.0,0000.81,0000.48,0000.40
2022-11-25 11:41:00,,0834.5,5.00,0.00,22.2,21.6,00.0,31.0,24.1,09.0,0000.0,0000.84,0000.50,0000.40
2022-11-25 11:42:00,,0834.4,5.00,0.00,22.2,21.3,00.0,31.0,24.1,09.2,0000.0,0000.78,0000.48,0000.41
2022-11-25 11:43:00,,0834.4,5.00,0.00,22.2,21.1,00.0,31.1,24.0,09.0,0000.0,0000.76,0000.49,0000.43
2022-11-25 11:44:00,,0834.4,5.00,0.00,22.2,21.0,00.0,31.1,24.0,09.0,0000.0,0000.79,0000.51,0000.44
2022-11-25 11:45:00,,0834.4,5.00,0.00,22.1,20.9,00.0,31.1,24.0,09.0,0000.0,0000.84,0000.53,0000.45
2022-11-25 11:46:00,,0834.4,5.00,0.00,22.1,20.8,00.0,31.1,23.9,09.2,0000.0,0000.89,0000.57,0000.48
2022-11-25 11:47:00,,0834.4,5.00,0.00,22.1,20.7,00.0,31.1,23.9,09.3,0000.0,0000.93,0000.60,0000.51
2022-11-25 11:48:00,,0834.4,5.00,0.00,22.1,20.6,00.0,31.1,23.9,09.3,0000.0,0000.97,0000.63,0000.53
2022-11-25 11:49:00,,0834.4,5.00,0.00,22.1,20.6,00.0,31.0,23.9,09.3,0000.0,0001.04,0000.67,0000.56
2022-11-25 11:50:00,,0834.4,5.01,0.00,22.0,20.5,00.0,31.0,23.9,09.3,0000.0,0001.06,0000.70,0000.59
2022-11-25 11:51:00,,0834.4,5.01,0.00,22.0,20.5,00.0,31.0,23.8,09.3,0000.0,0000.98,0000.71,0000.61
2022-11-25 11:52:00,,0834.4,5.00,0.00,22.0,20.5,00.0,31.0,23.8,09.3,0000.0,0000.96,0000.70,0000.62
2022-11-25 11:53:00,,0834.4,4.98,0.00,22.0,20.5,00.0,31.0,23.8,09.2,0000.0,0000.97,0000.70,0000.62
2022-11-25 11:54:00,,0834.4,5.01,0.00,22.0,20.4,00.0,31.0,23.8,09.2,0000.0,0000.92,0000.67,0000.60
2022-11-25 11:55:00,,0834.4,5.00,0.00,22.0,20.4,00.0,31.0,23.7,09.2,0000.0,0000.90,0000.66,0000.59
2022-11-25 11:56:00,,0834.4,5.01,0.00,22.0,20.6,00.0,30.9,23.8,09.2,0000.0,0000.85,0000.64,0000.58
2022-11-25 11:57:00,,0834.4,5.00,0.00,22.0,21.5,00.0,30.9,23.9,09.2,0000.0,0000.81,0000.61,0000.55
2022-11-25 11:58:00,,0834.4,5.00,0.00,22.1,22.2,00.0,30.9,24.1,09.1,0000.0,0000.77,0000.58,0000.54
2022-11-25 11:59:00,,0834.4,4.99,0.00,22.2,22.0,00.0,30.9,24.2,09.1,0000.0,0000.78,0000.58,0000.53
